Location: Unspecified
(43.4680°N, 87.1740°E)
Time: 19:40:07
(UTC+00:00)

Cosmos 773 Rocket - Pass Details

Date: 17 January 2020
Orbit: 746 x 776 km, 74.1° (Epoch: 16 February)

Event Time Altitude Azimuth Distance (km) Brightness Sun altitude
Rises 23:26:10 0° 193° (SSW) 3,240 7.2 -23.9°
Reaches altitude 10° 23:28:33 10° 191° (SSW) 2,318 6.4 -23.5°
Maximum altitude 23:33:48 74° 108° (ESE) 811 4.2 -22.5°
Drops below altitude 10° 23:39:04 10° 24° (NNE) 2,329 6.7 -21.6°
Sets 23:41:28 0° 23° (NNE) 3,258 7.4 -21.2°
